Weather in Chulym

Russia / Novosibirsk Oblast     55°05′28″N   80°57′47″E
temp.,
°C
wind,
m/s
gust,
m/s
humid.,
%
clouds,
%
prec.,
mm/h
press.,
hPa
HPBL,
m
27 february, sat
sat2701:00−25sw51095100 0.1 1035469
04:00−26sw5995100 0.1 1035373
07:00−26sw4896100 0.2 1036349
10:00−26sw4896100 0.1 1036365
13:00−24sw4794100 0.1 1037428
16:00−23sw4593100 0.0 1037413
19:00−27ssw349798 0.0 103754
22:00−29sw34960 0.0 103845
28 february, sun
sun2801:00−30ssw34970 0.0 103834
04:00−31s339765 0.0 103729
07:00−30s349868 0.0 103742
10:00−27sse479575 0.0 1035174
13:00−21sse479188 0.0 1032301
16:00−17se5989100 0.0 1028450
19:00−15se4895100 0.2 1025404
22:00−11ese51095100 0.6 1021468
1 march, mon
mon101:00−10se51095100 1.2 1017424
04:00−8se51195100 1.3 1013537
07:00−6se51095100 3.3 1009438
10:00−4e5797100 3.1 1006306
13:000wsw61399100 7.3 1006758
16:00−1nnw3399100 2.1 1006337
19:00−6nne4596100 3.1 1008214
22:00−9nne4795100 0.6 1011236
2 march, tue
tue201:00−13nne359698 0.9 1013123
04:00−16nne239783 0.1 101632
07:00−18ene229886 0.1 101820
10:00−15ese129595 0.1 1018108
13:00−12s228997 0.3 1019374
16:00−10sw2288100 0.1 1017412
19:00−13ssw1296100 0.2 101620
22:00−15e229797 0.0 101621
3 march, wed
wed301:00−14ene239799 0.1 101441
04:00−14ne2496100 0.4 101398
07:00−15ne2297100 0.7 101450
10:00−14ne2296100 0.3 1014129
13:00−11ene1190100 0.6 1015280
16:00−10nnw1190100 0.4 1016309
19:00−12n2296100 0.8 101824
22:00−14nnw129779 0.1 102020